EW0591 Weather Reports


Display with metric or nautical units.
time (UTC)temp
F
wind
direction
speed
MPH
gust
MPH
rain 1hr
in
rain 24hr
in
rain mn
in
humidity
%
barometer
mb
20260831072903 42 211 1.0 1.0 0.00 0.00 0.00 87 1026.1
20260831072359 43 240 0.0 0.0 0.00 0.00 0.00 86 1025.9
20260831071855 44 250 0.0 0.0 0.00 0.00 0.00 86 1026.1
20260831071354 44 134 1.0 1.0 0.00 0.00 0.00 86 1025.9
20260831070849 43 206 3.0 3.0 0.00 0.00 0.00 85 1025.5
20260831070348 43 253 0.0 0.0 0.00 0.00 0.00 85 1025.9
20260831065848 43 253 0.0 0.0 0.00 0.00 0.00 85 1025.8
20260831065345 44 278 0.0 0.0 0.00 0.00 0.00 84 1025.5
20260831064841 43 243 0.0 0.0 0.00 0.00 0.00 85 1025.9
20260831064336 44 244 0.0 0.0 0.00 0.00 0.00 84 1025.8
20260831063832 44 243 0.0 0.0 0.00 0.00 0.00 84 1025.9
20260831063327 46 246 1.0 1.0 0.00 0.00 0.00 84 1025.8
20260831062826 46 229 0.0 0.0 0.00 0.00 0.00 83 1025.8
20260831062322 46 243 0.0 0.0 0.00 0.00 0.00 81 1025.8
20260831061821 46 179 1.0 1.0 0.00 0.00 0.00 81 1026.0
20260831061320 46 222 1.0 1.0 0.00 0.00 0.00 79 1025.9
20260831060816 47 244 0.0 0.0 0.00 0.00 0.00 76 1025.9
20260831060316 46 234 0.0 0.0 0.00 0.00 0.00 78 1025.8
20260831055816 45 213 0.0 1.0 0.00 0.02 0.02 81 1026.0
20260831055311 45 239 0.0 0.0 0.00 0.02 0.02 81 1025.8
20260831054806 46 229 1.0 1.0 0.00 0.02 0.02 80 1025.4
20260831054301 46 236 0.0 0.0 0.00 0.02 0.02 80 1025.8
20260831053800 46 237 0.0 1.0 0.00 0.02 0.02 79 1025.5
20260831053259 48 216 1.0 2.0 0.00 0.02 0.02 76 1025.7
20260831052753 49 245 0.0 0.0 0.00 0.02 0.02 69 1025.5
20260831052253 49 228 0.0 0.0 0.00 0.02 0.02 73 1025.3
20260831051751 49 219 0.0 0.0 0.00 0.02 0.02 73 1025.3
20260831051250 48 202 1.0 1.0 0.00 0.02 0.02 77 1025.3
20260831050744 48 222 1.0 1.0 0.00 0.02 0.02 75 1025.2
20260831050244 48 164 2.0 2.0 0.00 0.02 0.02 77 1025.3
20260831045738 48 219 1.0 1.0 0.00 0.02 0.02 76 1025.3
20260831045233 48 187 1.0 1.0 0.00 0.02 0.02 76 1025.2
20260831044728 48 217 0.0 0.0 0.00 0.02 0.02 76 1025.4
20260831044223 48 254 0.0 0.0 0.00 0.02 0.02 76 1025.3
20260831043719 48 243 0.0 0.0 0.00 0.02 0.02 76 1025.0
20260831043214 48 235 0.0 0.0 0.00 0.02 0.02 76 1024.9
20260831042713 49 217 0.0 0.0 0.00 0.02 0.02 75 1025.2
20260831042208 50 221 0.0 0.0 0.00 0.02 0.02 72 1025.2
20260831041703 53 263 2.0 2.0 0.00 0.02 0.02 67 1025.1
20260831041202 51 61 2.0 2.0 0.00 0.02 0.02 74 1025.1
20260831040657 49 93 3.0 3.0 0.00 0.02 0.02 75 1025.0
20260831040156 49 242 0.0 0.0 0.00 0.02 0.02 71 1024.8
20260831035655 49 232 0.0 0.0 0.00 0.02 0.02 74 1024.8
20260831035150 49 242 0.0 0.0 0.00 0.02 0.02 73 1024.7
20260831034648 50 248 0.0 0.0 0.00 0.02 0.02 73 1024.9
20260831034144 51 302 0.0 0.0 0.00 0.02 0.02 71 1024.7
20260831033640 53 187 2.0 2.0 0.00 0.02 0.02 66 1024.7
20260831033134 52 258 0.0 0.0 0.00 0.02 0.02 67 1024.5
20260831032629 52 293 1.0 1.0 0.00 0.02 0.02 68 1024.7
20260831032125 52 257 0.0 1.0 0.00 0.02 0.02 66 1024.5
20260831031624 53 224 0.0 1.0 0.00 0.02 0.02 67 1024.4
20260831031124 55 277 0.0 1.0 0.00 0.02 0.02 61 1024.3
20260831030622 54 240 0.0 0.0 0.00 0.02 0.02 63 1024.3
20260831030122 55 238 0.0 0.0 0.00 0.02 0.02 60 1024.2
20260831025620 55 185 0.0 1.0 0.00 0.02 0.02 53 1024.1
20260831025115 56 235 0.0 0.0 0.00 0.02 0.02 57 1024.1
20260831024612 56 168 2.0 2.0 0.00 0.02 0.02 57 1024.0
20260831024110 57 234 0.0 0.0 0.00 0.02 0.02 53 1023.8
20260831023609 59 277 2.0 2.0 0.00 0.02 0.02 50 1024.0
20260831023108 60 297 0.0 1.0 0.00 0.02 0.02 46 1023.6
20260831022603 60 250 0.0 0.0 0.00 0.02 0.02 44 1023.8
20260831022058 61 256 0.0 0.0 0.00 0.02 0.02 44 1023.7
20260831021556 62 257 0.0 1.0 0.00 0.02 0.02 42 1023.7
20260831021052 63 224 0.0 0.0 0.00 0.02 0.02 41 1023.7
20260831020548 64 260 1.0 1.0 0.00 0.02 0.02 38 1023.7
20260831020037 63 256 1.0 1.0 0.00 0.02 0.02 38 1023.6
20260831015533 63 325 4.0 5.0 0.00 0.02 0.02 40 1023.6
20260831015027 64 355 3.0 3.0 0.00 0.02 0.02 41 1023.7
20260831014522 65 2 7.0 8.0 0.00 0.02 0.02 37 1023.7
20260831014018 66 325 4.0 5.0 0.00 0.02 0.02 37 1023.6
20260831013514 66 328 4.0 5.0 0.00 0.02 0.02 39 1023.4
20260831013008 67 354 5.0 6.0 0.00 0.02 0.02 37 1023.3
20260831012503 68 310 5.0 7.0 0.00 0.02 0.02 37 1023.2
20260831012002 68 323 5.0 6.0 0.00 0.02 0.02 35 1023.7
20260831011457 68 341 3.0 3.0 0.00 0.02 0.02 35 1023.6
20260831010953 69 326 5.0 6.0 0.00 0.02 0.02 34 1023.6
20260831010453 69 331 5.0 7.0 0.00 0.02 0.02 34 1023.4
20260831005949 70 249 2.0 2.0 0.00 0.02 0.02 34 1023.7
20260831005444 71 295 3.0 3.0 0.00 0.02 0.02 33 1023.4
20260831004943 72 301 4.0 5.0 0.00 0.02 0.02 31 1023.4
20260831004440 71 317 3.0 3.0 0.00 0.02 0.02 33 1023.3
20260831003936 71 330 5.0 7.0 0.00 0.02 0.02 30 1023.4
20260831003431 72 307 3.0 3.0 0.00 0.02 0.02 31 1023.4
20260831002931 72 237 3.0 3.0 0.00 0.02 0.02 30 1023.3
20260831002430 73 263 2.0 3.0 0.00 0.02 0.02 30 1023.3
20260831001926 73 258 4.0 5.0 0.00 0.02 0.02 30 1023.2
20260831001421 73 263 3.0 3.0 0.00 0.02 0.02 29 1023.2
20260831000918 72 221 3.0 3.0 0.00 0.02 0.02 28 1023.2
20260831000414 72 222 6.0 8.0 0.00 0.02 0.02 29 1023.0
20260830235912 72 238 5.0 6.0 0.00 0.02 0.02 29 1023.1
20260830235407 72 228 4.0 6.0 0.00 0.02 0.02 29 1023.1
20260830234902 72 303 5.0 6.0 0.00 0.02 0.02 29 1023.1
20260830234357 72 330 5.0 6.0 0.00 0.02 0.02 30 1023.1
20260830233854 73 341 4.0 6.0 0.00 0.02 0.02 29 1023.3
20260830233348 72 308 5.0 6.0 0.00 0.02 0.02 31 1023.1
20260830232844 72 324 5.0 6.0 0.00 0.02 0.02 30 1023.1
20260830232339 72 285 8.0 10.0 0.00 0.02 0.02 31 1023.2
20260830231836 73 308 3.0 3.0 0.00 0.02 0.02 32 1022.9
20260830231331 72 270 4.0 5.0 0.00 0.02 0.02 31 1023.3
20260830230830 72 312 4.0 6.0 0.00 0.02 0.02 32 1023.2
20260830230326 72 270 7.0 8.0 0.00 0.02 0.02 31 1023.3
20260830225825 72 311 7.0 8.0 0.00 0.02 0.02 31 1023.0
20260830225320 72 281 7.0 8.0 0.00 0.02 0.02 31 1023.1
20260830224815 73 276 2.0 2.0 0.00 0.02 0.02 31 1023.3
20260830224309 73 252 4.0 7.0 0.00 0.02 0.02 30 1023.2
20260830223806 73 281 3.0 3.0 0.00 0.02 0.02 31 1023.6
20260830223302 72 321 4.0 5.0 0.00 0.02 0.02 32 1023.2
20260830222755 71 286 7.0 9.0 0.00 0.02 0.02 31 1023.2
20260830222251 72 294 7.0 9.0 0.00 0.02 0.02 33 1023.3
20260830221746 73 275 4.0 5.0 0.00 0.02 0.02 32 1023.1
20260830221244 73 306 7.0 10.0 0.00 0.02 0.02 34 1023.2
20260830220743 73 299 7.0 7.0 0.00 0.02 0.02 31 1023.4
20260830220243 73 270 5.0 7.0 0.00 0.02 0.02 31 1023.2
20260830215741 74 301 3.0 5.0 0.00 0.02 0.02 34 1023.2
20260830215236 72 201 2.0 3.0 0.00 0.02 0.02 29 1023.3
20260830214731 74 177 4.0 5.0 0.00 0.02 0.02 32 1023.4
20260830214231 70 196 0.0 0.0 0.00 0.02 0.02 36 1023.3
20260830213730 70 212 3.0 5.0 0.00 0.02 0.02 33 1023.6
20260830213226 72 256 1.0 1.0 0.00 0.02 0.02 33 1023.4
20260830212722 71 176 4.0 5.0 0.00 0.02 0.02 34 1023.6
20260830212217 71 149 4.0 5.0 0.00 0.02 0.02 37 1023.7
20260830211712 72 223 3.0 3.0 0.00 0.02 0.02 34 1023.7
20260830211210 72 210 1.0 2.0 0.00 0.02 0.02 33 1023.7
20260830210707 72 218 0.0 1.0 0.00 0.02 0.02 34 1023.7
20260830210206 71 231 0.0 0.0 0.00 0.02 0.02 35 1023.4
20260830205703 70 330 3.0 3.0 0.00 0.02 0.02 35 1023.7
20260830205158 71 327 3.0 3.0 0.00 0.02 0.02 36 1023.6
20260830204658 71 172 3.0 3.0 0.00 0.02 0.02 34 1023.8
20260830204157 70 229 0.0 1.0 0.00 0.02 0.02 38 1023.8
20260830203654 69 186 2.0 3.0 0.00 0.02 0.02 37 1023.7
20260830203149 68 244 1.0 1.0 0.00 0.02 0.02 38 1023.6
20260830202648 67 251 1.0 1.0 0.00 0.02 0.02 38 1023.9
20260830202143 69 318 5.0 6.0 0.00 0.02 0.02 38 1024.1
20260830201643 69 295 2.0 3.0 0.00 0.02 0.02 38 1024.0
20260830201139 68 301 1.0 2.0 0.00 0.02 0.02 38 1024.1
20260830200634 69 263 3.0 3.0 0.00 0.02 0.02 35 1023.9
20260830200133 68 283 1.0 2.0 0.00 0.02 0.02 36 1024.1
20260830195629 69 152 1.0 2.0 0.00 0.02 0.02 37 1024.0
20260830195126 69 206 1.0 1.0 0.00 0.02 0.02 39 1024.0
20260830194621 69 198 0.0 0.0 0.00 0.02 0.02 37 1024.1
20260830194120 69 209 4.0 6.0 0.00 0.02 0.02 39 1024.0
20260830193621 69 74 3.0 3.0 0.00 0.02 0.02 38 1024.1
20260830193115 69 115 1.0 3.0 0.00 0.02 0.02 39 1023.8
20260830192611 68 34 2.0 3.0 0.00 0.02 0.02 40 1024.1
20260830192111 66 218 2.0 2.0 0.00 0.02 0.02 41 1024.1
20260830191606 67 307 2.0 2.0 0.00 0.02 0.02 42 1024.0
20260830191102 68 245 1.0 1.0 0.00 0.02 0.02 39 1024.3
20260830190557 68 3 3.0 3.0 0.00 0.02 0.02 38 1024.4
20260830190052 66 158 3.0 3.0 0.00 0.02 0.02 40 1024.4
20260830185545 66 138 5.0 7.0 0.00 0.02 0.02 41 1024.4
20260830185041 67 225 2.0 2.0 0.00 0.02 0.02 40 1024.4
20260830184540 66 164 3.0 5.0 0.00 0.02 0.02 41 1024.4
20260830184034 66 247 1.0 1.0 0.00 0.02 0.02 39 1024.5
20260830183529 67 69 0.0 1.0 0.00 0.02 0.02 41 1024.7
20260830183025 67 206 3.0 3.0 0.00 0.02 0.02 39 1024.7
20260830182520 67 109 2.0 2.0 0.00 0.02 0.02 40 1024.7
20260830182016 66 96 1.0 1.0 0.00 0.02 0.02 42 1024.5
20260830181512 65 296 2.0 2.0 0.00 0.02 0.02 41 1025.0
20260830181011 67 52 3.0 3.0 0.00 0.02 0.02 41 1025.0
20260830180506 65 230 1.0 1.0 0.00 0.02 0.02 41 1024.9
20260830180004 65 253 3.0 3.0 0.00 0.02 0.02 42 1025.0
20260830175459 64 191 2.0 2.0 0.00 0.02 0.02 42 1024.9
20260830174954 65 30 2.0 2.0 0.00 0.02 0.02 45 1024.9
20260830174449 64 177 2.0 2.0 0.00 0.02 0.02 44 1025.0
20260830173944 64 229 0.0 0.0 0.00 0.02 0.02 47 1025.3
20260830173440 63 165 2.0 3.0 0.00 0.02 0.02 48 1025.0
20260830172935 63 91 1.0 2.0 0.00 0.02 0.02 50 1025.3
20260830172432 62 240 0.0 0.0 0.00 0.02 0.02 50 1025.0
20260830171927 62 23 0.0 1.0 0.00 0.02 0.02 51 1025.1
20260830171423 61 321 5.0 6.0 0.00 0.02 0.02 55 1025.2
20260830170922 61 243 0.0 0.0 0.00 0.02 0.02 52 1025.3
20260830170422 61 339 2.0 3.0 0.00 0.02 0.02 53 1025.4
20260830165921 60 323 3.0 5.0 0.00 0.02 0.02 56 1025.2
20260830165417 60 329 3.0 3.0 0.00 0.02 0.02 57 1025.3
20260830164913 60 314 3.0 3.0 0.00 0.02 0.02 57 1025.4
20260830164408 59 343 3.0 3.0 0.00 0.02 0.02 56 1025.5
20260830163905 59 347 2.0 2.0 0.00 0.02 0.02 56 1025.4
20260830163400 59 348 3.0 3.0 0.00 0.02 0.02 58 1025.1
20260830162900 58 254 4.0 5.0 0.00 0.02 0.02 58 1025.4
20260830162356 59 260 1.0 1.0 0.00 0.02 0.02 57 1025.2
20260830161851 58 199 2.0 2.0 0.00 0.02 0.02 58 1025.2
20260830161350 59 225 0.0 0.0 0.00 0.02 0.02 55 1025.3
20260830160846 58 265 1.0 2.0 0.00 0.02 0.02 57 1025.3
20260830160341 57 196 2.0 2.0 0.00 0.02 0.02 60 1025.1
20260830155837 57 210 1.0 1.0 0.00 0.02 0.02 62 1025.3
20260830155333 56 251 0.0 0.0 0.00 0.02 0.02 59 1025.5
20260830154833 57 29 1.0 2.0 0.00 0.02 0.02 64 1025.5
20260830154329 57 223 0.0 0.0 0.00 0.02 0.02 67 1025.5
20260830153825 56 111 0.0 1.0 0.00 0.02 0.02 66 1025.7
20260830153321 55 244 0.0 0.0 0.00 0.02 0.02 72 1025.4
20260830152819 54 282 0.0 1.0 0.00 0.02 0.02 73 1025.8
20260830152314 53 299 0.0 1.0 0.00 0.02 0.02 75 1025.7
20260830151809 54 238 0.0 0.0 0.00 0.02 0.02 78 1025.7
20260830151308 51 235 0.0 0.0 0.00 0.02 0.02 85 1025.5
20260830150803 49 267 0.0 0.0 0.00 0.02 0.02 89 1025.4
20260830150302 49 250 0.0 0.0 0.00 0.02 0.02 91 1026.0
20260830145757 47 217 0.0 0.0 0.00 0.02 0.02 91 1026.0
20260830145252 48 214 1.0 1.0 0.00 0.02 0.02 94 1025.8
20260830144748 49 221 0.0 0.0 0.00 0.02 0.02 95 1025.8
20260830144243 47 221 0.0 0.0 0.00 0.02 0.02 95 1025.8
20260830143739 48 212 0.0 0.0 0.00 0.02 0.02 95 1026.1
20260830143238 46 326 1.0 1.0 0.00 0.02 0.02 95 1026.2
20260830142733 45 256 0.0 0.0 0.00 0.02 0.02 95 1025.8
20260830142228 45 212 0.0 0.0 0.00 0.02 0.02 95 1025.9
20260830141723 45 197 0.0 0.0 0.00 0.02 0.02 95 1025.7
20260830141219 44 205 1.0 1.0 0.00 0.02 0.02 95 1025.7
20260830140713 44 212 1.0 1.0 0.00 0.02 0.02 95 1025.9
20260830140208 43 239 0.0 0.0 0.00 0.02 0.02 95 1025.5
20260830135703 43 242 0.0 0.0 0.00 0.02 0.02 95 1025.2
20260830135158 43 229 0.0 0.0 0.00 0.02 0.02 95 1025.5
20260830134654 43 205 0.0 0.0 0.00 0.02 0.02 95 1025.7
20260830134149 43 219 0.0 0.0 0.00 0.02 0.02 95 1025.4
20260830133645 42 294 0.0 0.0 0.00 0.02 0.02 95 1025.4
20260830133140 42 219 0.0 0.0 0.00 0.02 0.02 95 1025.3
20260830132636 42 229 0.0 0.0 0.00 0.02 0.02 95 1025.2
20260830132131 43 188 0.0 0.0 0.00 0.02 0.02 95 1025.4
20260830131630 43 233 0.0 0.0 0.00 0.02 0.02 95 1025.4
20260830131125 42 233 0.0 0.0 0.00 0.02 0.02 95 1025.3
20260830130620 42 111 0.0 1.0 0.00 0.02 0.02 95 1025.0
20260830130115 42 269 0.0 0.0 0.00 0.02 0.02 95 1025.1
20260830125608 42 250 0.0 0.0 0.00 0.02 0.02 95 1025.1
20260830125108 42 220 1.0 1.0 0.00 0.02 0.02 95 1025.0
20260830124607 43 234 0.0 0.0 0.00 0.02 0.02 95 1024.9
20260830124102 43 299 0.0 0.0 0.00 0.02 0.02 95 1024.9
20260830123600 43 211 0.0 0.0 0.00 0.02 0.02 95 1025.1
20260830123055 42 161 1.0 2.0 0.00 0.02 0.02 95 1025.3
20260830122551 43 270 0.0 0.0 0.00 0.02 0.02 95 1025.3
20260830122047 42 217 0.0 0.0 0.00 0.02 0.02 95 1025.2
20260830121543 43 220 0.0 0.0 0.00 0.02 0.02 95 1025.1
20260830121042 42 254 0.0 0.0 0.00 0.02 0.02 95 1025.1
20260830120537 43 242 0.0 0.0 0.00 0.02 0.02 95 1025.4
20260830120035 43 226 0.0 0.0 0.00 0.02 0.02 95 1025.1
20260830115530 44 273 0.0 0.0 0.00 0.02 0.02 95 1024.9
20260830115025 43 136 0.0 1.0 0.00 0.02 0.02 95 1024.9
20260830114522 42 220 0.0 0.0 0.00 0.02 0.02 95 1025.0
20260830114021 44 217 0.0 0.0 0.00 0.02 0.02 95 1024.8
20260830113521 43 184 1.0 1.0 0.00 0.02 0.02 95 1025.0
20260830113017 44 278 3.0 3.0 0.00 0.02 0.02 95 1025.1
20260830112513 43 218 0.0 0.0 0.00 0.02 0.02 95 1024.8
20260830112009 44 258 1.0 1.0 0.00 0.02 0.02 95 1025.0
20260830111504 45 235 0.0 0.0 0.00 0.02 0.02 95 1024.8
20260830111001 44 237 0.0 0.0 0.00 0.02 0.02 95 1025.0
20260830110455 44 244 0.0 0.0 0.00 0.02 0.02 95 1024.8
20260830105954 44 203 0.0 0.0 0.00 0.02 0.02 94 1024.8
20260830105451 45 274 0.0 0.0 0.00 0.02 0.02 95 1024.5
20260830104947 45 252 0.0 0.0 0.00 0.02 0.02 95 1024.5
20260830104443 45 54 1.0 1.0 0.00 0.02 0.02 95 1024.8
20260830103938 46 253 0.0 1.0 0.00 0.02 0.02 94 1024.7
20260830103434 45 168 0.0 0.0 0.00 0.02 0.02 95 1024.4
20260830102931 47 232 0.0 0.0 0.00 0.02 0.02 95 1024.2
20260830102427 46 218 0.0 0.0 0.00 0.02 0.02 95 1024.1
20260830101923 45 271 0.0 0.0 0.00 0.02 0.02 94 1024.3
20260830101418 47 249 3.0 3.0 0.00 0.02 0.02 94 1024.3
20260830100918 47 145 0.0 1.0 0.00 0.02 0.02 95 1024.1
20260830100417 48 199 2.0 3.0 0.00 0.02 0.02 94 1024.3
20260830095916 47 288 0.0 1.0 0.00 0.02 0.02 94 1024.1
20260830095412 49 249 0.0 0.0 0.00 0.02 0.02 94 1024.2
20260830094908 48 251 0.0 0.0 0.00 0.02 0.02 94 1024.4
20260830094404 48 199 0.0 1.0 0.00 0.02 0.02 94 1024.5
20260830093859 48 243 0.0 0.0 0.00 0.02 0.02 94 1024.3
20260830093354 48 246 2.0 2.0 0.00 0.02 0.02 94 1024.3
20260830092849 49 247 0.0 0.0 0.00 0.02 0.02 94 1024.1
20260830092345 50 221 0.0 0.0 0.00 0.02 0.02 94 1024.2
20260830091842 50 214 0.0 0.0 0.00 0.02 0.02 94 1024.2
20260830091342 50 247 0.0 0.0 0.00 0.02 0.02 94 1024.3
20260830090841 50 265 0.0 0.0 0.00 0.02 0.02 94 1023.9
20260830090336 50 243 0.0 0.0 0.00 0.02 0.02 94 1024.1
20260830085836 51 243 0.0 0.0 0.00 0.02 0.02 94 1024.1
20260830085331 51 235 0.0 0.0 0.00 0.02 0.02 94 1024.2
20260830084827 51 291 1.0 1.0 0.00 0.02 0.02 94 1024.2
20260830084322 51 256 0.0 0.0 0.00 0.02 0.02 94 1024.2
20260830083817 51 254 0.0 0.0 0.00 0.02 0.02 94 1024.0
20260830083313 51 232 0.0 0.0 0.00 0.02 0.02 94 1024.1
20260830082813 51 263 0.0 0.0 0.00 0.02 0.02 94 1024.3
20260830082308 51 257 0.0 0.0 0.00 0.02 0.02 94 1024.2
20260830081803 51 254 1.0 1.0 0.00 0.02 0.02 94 1024.3
20260830081302 51 271 3.0 3.0 0.00 0.02 0.02 94 1023.9
20260830080757 51 228 0.0 0.0 0.00 0.02 0.02 94 1024.1
20260830080253 51 221 0.0 0.0 0.00 0.02 0.02 93 1023.8
20260830075752 52 254 0.0 0.0 0.00 0.02 0.02 93 1023.6
20260830075248 51 297 1.0 1.0 0.00 0.02 0.02 93 1023.8
20260830074743 51 257 0.0 0.0 0.00 0.02 0.02 93 1023.8
20260830074239 51 234 0.0 1.0 0.00 0.02 0.02 93 1023.8
20260830073734 51 221 0.0 0.0 0.00 0.02 0.02 93 1023.7
20260830073231 51 193 1.0 1.0 0.00 0.02 0.02 93 1023.6